Weather History for KMPZ - November, 2012

Change the Weather History Date:

Monday, November 26, 2012

  Actual Average Record
Temperature  
Mean Temperature 25 °F -  
Max Temperature 32 °F 45 °F 71 °F (1990)
Min Temperature 18 °F 28 °F -2 °F (1977)
Degree Days  
Heating Degree Days 40    
Moisture  
Dew Point 17 °F    
Average Humidity 64    
Maximum Humidity 78    
Minimum Humidity 48    
Precipitation  
Precipitation 0.00 in - - ()
Sea Level Pressure  
Sea Level Pressure 30.30 in    
Wind  
Wind Speed 10 mph (NNW)    
Max Wind Speed 18 mph    
Max Gust Speed 22 mph    
Visibility 10 miles    
Events      
Averages and records for this station are not official NWS values.
T = Trace of Precipitation, MM = Missing Value Source: NWS Daily Summary

Daily Weather History Graph

Daily Weather History Graph

Search for Another Location

Airport or City:

Trip Planner

Search our weather history database for the weather conditions in past years. The results will help you decide how hot, cold, wet, or windy it might be!

Date:

Astronomy

Nov. 26, 2012 Rise Set
Actual Time 7:06 AM CST 4:40 PM CST
Civil Twilight 6:36 AM CST 5:10 PM CST
Nautical Twilight 6:02 AM CST 5:44 PM CST
Astronomical Twilight 5:29 AM CST 6:17 PM CST
Moon 3:33 PM CST (11/26) 5:16 AM CST (11/26)
Length of Visible Light 10h 34m
Length of Day
9h 33m
Waxing Gibbous, 97% of the Moon is Illuminated
Nov 26
Waxing Gibbous
Nov 28
Full
Dec 6
Last Quarter
Dec 13
New
Dec 19
First Quarter

Hourly Weather History & Observations

Time (CST) Temp. Windchill Dew Point Humidity Pressure Visibility Wind Dir Wind Speed Gust Speed Precip Events Conditions
12:15 AM 32.0 °F 26.4 °F 25.0 °F 75% 30.13 in 10.0 mi NW 5.8 mph - N/A   Scattered Clouds
12:35 AM 32.0 °F 26.4 °F 25.5 °F 77% 30.13 in 10.0 mi NW 5.8 mph - N/A   Clear
12:55 AM 32.0 °F 24.8 °F 25.5 °F 77% 30.13 in 10.0 mi NNW 8.1 mph - N/A   Clear
1:15 AM 32.0 °F 22.5 °F 25.7 °F 78% 30.13 in 10.0 mi North 12.7 mph - N/A   Scattered Clouds
1:35 AM 32.0 °F 23.0 °F 25.5 °F 77% 30.14 in 10.0 mi North 11.5 mph - N/A   Mostly Cloudy
1:55 AM 32.0 °F 22.5 °F 25.3 °F 76% 30.14 in 10.0 mi North 12.7 mph - N/A   Overcast
2:15 AM 32.0 °F 23.0 °F 25.2 °F 76% 30.15 in 10.0 mi North 11.5 mph - N/A   Overcast
2:35 AM 32.0 °F 23.6 °F 25.2 °F 76% 30.16 in 10.0 mi North 10.4 mph - N/A   Overcast
2:55 AM 32.0 °F 22.1 °F 24.6 °F 74% 30.16 in 10.0 mi North 13.8 mph - N/A   Overcast
3:15 AM 32.0 °F 23.6 °F 23.9 °F 72% 30.17 in 10.0 mi North 10.4 mph - N/A   Overcast
3:35 AM 31.6 °F 23.1 °F 23.9 °F 73% 30.18 in 10.0 mi North 10.4 mph - N/A   Overcast
3:55 AM 31.1 °F 23.7 °F 23.9 °F 75% 30.18 in 10.0 mi North 8.1 mph - N/A   Overcast
4:15 AM 31.1 °F 23.1 °F 23.5 °F 74% 30.18 in 10.0 mi North 9.2 mph - N/A   Overcast
4:35 AM 31.1 °F 21.9 °F 23.0 °F 72% 30.19 in 10.0 mi NNE 11.5 mph - N/A   Overcast
4:55 AM 31.1 °F 23.1 °F 22.8 °F 71% 30.20 in 10.0 mi North 9.2 mph - N/A   Overcast
5:15 AM 31.1 °F 22.4 °F 22.1 °F 69% 30.19 in 10.0 mi NNE 10.4 mph - N/A   Overcast
5:35 AM 31.1 °F 21.9 °F 22.1 °F 69% 30.20 in 10.0 mi NNE 11.5 mph - N/A   Overcast
5:55 AM 31.1 °F 21.9 °F 22.1 °F 69% 30.20 in 10.0 mi NNE 11.5 mph - N/A   Overcast
6:15 AM 30.9 °F 21.7 °F 21.9 °F 69% 30.20 in 10.0 mi North 11.5 mph - N/A   Overcast
6:35 AM 30.7 °F 21.4 °F 22.1 °F 70% 30.21 in 10.0 mi North 11.5 mph - N/A   Overcast
6:55 AM 30.6 °F 23.8 °F 22.1 °F 71% 30.22 in 10.0 mi North 6.9 mph - N/A   Overcast
7:15 AM 30.6 °F 23.8 °F 22.3 °F 71% 30.23 in 10.0 mi North 6.9 mph - N/A   Overcast
7:35 AM 30.6 °F 23.1 °F 22.8 °F 73% 30.25 in 10.0 mi North 8.1 mph - N/A   Overcast
7:55 AM 30.6 °F 22.4 °F 22.1 °F 71% 30.25 in 10.0 mi North 9.2 mph - N/A   Overcast
8:15 AM 31.1 °F 24.5 °F 22.5 °F 70% 30.26 in 10.0 mi North 6.9 mph - N/A   Overcast
8:35 AM 31.5 °F 23.5 °F 22.8 °F 70% 30.28 in 10.0 mi NNW 9.2 mph - N/A   Overcast
8:55 AM 31.6 °F 22.6 °F 21.7 °F 67% 30.28 in 10.0 mi North 11.5 mph - N/A   Overcast
9:15 AM 31.5 °F 23.5 °F 21.4 °F 66% 30.28 in 10.0 mi North 9.2 mph - N/A   Overcast
9:35 AM 31.5 °F 21.8 °F 20.8 °F 65% 30.29 in 10.0 mi North 12.7 mph - N/A   Overcast
9:55 AM 31.6 °F 21.2 °F 19.2 °F 60% 30.30 in 10.0 mi NNW 15.0 mph - N/A   Overcast
10:15 AM 31.1 °F 19.7 °F 17.2 °F 57% 30.31 in 10.0 mi NNW 17.3 mph - N/A   Mostly Cloudy
10:35 AM 30.9 °F 20.2 °F 16.5 °F 55% 30.32 in 10.0 mi NNW 15.0 mph - N/A   Overcast
10:55 AM 30.9 °F 20.7 °F 16.7 °F 56% 30.31 in 10.0 mi NNW 13.8 mph - N/A   Overcast
11:15 AM 31.1 °F 20.5 °F 16.3 °F 54% 30.32 in 10.0 mi NNW 15.0 mph - N/A   Overcast
11:35 AM 30.9 °F 20.2 °F 16.0 °F 54% 30.32 in 10.0 mi NNW 15.0 mph - N/A   Overcast
11:55 AM 31.1 °F 20.9 °F 16.0 °F 54% 30.32 in 10.0 mi NNW 13.8 mph - N/A   Overcast
12:15 PM 30.9 °F 21.2 °F 15.6 °F 53% 30.33 in 10.0 mi North 12.7 mph - N/A   Overcast
12:35 PM 30.9 °F 20.2 °F 15.8 °F 54% 30.33 in 10.0 mi NNW 15.0 mph - N/A   Overcast
12:55 PM 31.5 °F 23.5 °F 15.8 °F 52% 30.32 in 10.0 mi NW 9.2 mph - N/A   Overcast
1:15 PM 31.3 °F 20.7 °F 15.6 °F 52% 30.32 in 10.0 mi NW 15.0 mph - N/A   Overcast
1:35 PM 31.1 °F 20.1 °F 15.4 °F 52% 30.32 in 10.0 mi NNW 16.1 mph 19.6 mph N/A   Overcast
1:55 PM 31.1 °F 21.4 °F 15.6 °F 53% 30.33 in 10.0 mi NNW 12.7 mph - N/A   Overcast
2:15 PM 30.2 °F 20.2 °F 15.1 °F 53% 30.33 in 10.0 mi NW 12.7 mph 18.4 mph N/A   Overcast
2:35 PM 30.4 °F 18.4 °F 14.4 °F 51% 30.33 in 10.0 mi NNW 18.4 mph 21.9 mph N/A   Overcast
2:55 PM 30.0 °F 18.3 °F 13.8 °F 51% 30.33 in 10.0 mi NNW 17.3 mph - N/A   Mostly Cloudy
3:15 PM 29.7 °F 20.1 °F 14.0 °F 52% 30.34 in 10.0 mi NW 11.5 mph 18.4 mph N/A   Overcast
3:35 PM 29.1 °F 20.0 °F 14.0 °F 53% 30.35 in 10.0 mi NW 10.4 mph 17.3 mph N/A   Overcast
3:55 PM 29.1 °F 19.4 °F 13.1 °F 51% 30.34 in 10.0 mi NW 11.5 mph - N/A   Overcast
4:15 PM 28.9 °F 19.2 °F 12.0 °F 49% 30.35 in 10.0 mi NW 11.5 mph - N/A   Overcast
4:35 PM 28.6 °F 18.7 °F 11.7 °F 49% 30.35 in 10.0 mi NW 11.5 mph 16.1 mph N/A   Overcast
4:55 PM 28.4 °F 18.0 °F 11.3 °F 49% 30.35 in 10.0 mi NW 12.7 mph - N/A   Overcast
5:15 PM 28.2 °F 18.9 °F 10.9 °F 48% 30.35 in 10.0 mi NW 10.4 mph - N/A   Overcast
5:35 PM 27.5 °F 18.6 °F 11.5 °F 51% 30.36 in 10.0 mi NW 9.2 mph - N/A   Scattered Clouds
5:55 PM 26.6 °F 17.5 °F 11.3 °F 53% 30.37 in 10.0 mi NW 9.2 mph - N/A   Clear
6:15 PM 26.1 °F 19.4 °F 11.3 °F 54% 30.38 in 10.0 mi NW 5.8 mph - N/A   Scattered Clouds
6:35 PM 25.0 °F 17.1 °F 11.3 °F 56% 30.38 in 10.0 mi NW 6.9 mph - N/A   Scattered Clouds
6:55 PM 24.6 °F 15.1 °F 11.8 °F 58% 30.38 in 10.0 mi NW 9.2 mph - N/A   Clear
7:15 PM 24.4 °F 13.0 °F 12.6 °F 61% 30.39 in 10.0 mi NNW 12.7 mph - N/A   Clear
7:35 PM 23.5 °F 13.0 °F 12.7 °F 63% 30.39 in 10.0 mi NNW 10.4 mph - N/A   Clear
7:55 PM 23.0 °F 12.4 °F 12.6 °F 64% 30.40 in 10.0 mi NNW 10.4 mph - N/A   Clear
8:15 PM 22.5 °F 12.4 °F 12.6 °F 66% 30.40 in 10.0 mi NNW 9.2 mph - N/A   Clear
8:35 PM 21.9 °F 12.5 °F 12.6 °F 67% 30.40 in 10.0 mi NW 8.1 mph - N/A   Clear
8:55 PM 21.4 °F 12.8 °F 12.2 °F 68% 30.41 in 10.0 mi NW 6.9 mph - N/A   Clear
9:15 PM 21.0 °F 12.4 °F 12.2 °F 69% 30.42 in 10.0 mi NW 6.9 mph - N/A   Clear
9:35 PM 20.7 °F 11.9 °F 12.0 °F 69% 30.42 in 10.0 mi NW 6.9 mph - N/A   Clear
9:55 PM 20.3 °F 11.5 °F 11.8 °F 70% 30.42 in 10.0 mi NW 6.9 mph - N/A   Clear
10:15 PM 19.4 °F 11.5 °F 11.3 °F 71% 30.42 in 10.0 mi NW 5.8 mph - N/A   Clear
10:35 PM 19.2 °F - 11.3 °F 71% 30.42 in 10.0 mi Calm Calm - N/A   Clear
10:55 PM 18.5 °F 13.3 °F 11.3 °F 73% 30.43 in 10.0 mi WNW 3.5 mph - N/A   Clear
11:15 PM 18.3 °F 13.1 °F 10.9 °F 73% 30.43 in 10.0 mi WNW 3.5 mph - N/A   Clear
11:35 PM 18.3 °F 10.2 °F 10.9 °F 73% 30.43 in 10.0 mi WNW 5.8 mph - N/A   Clear
11:55 PM 18.1 °F 11.3 °F 10.9 °F 73% 30.43 in 10.0 mi WNW 4.6 mph - N/A   Clear